Location: Binningen
(47.7924°N, 8.7261°E)
Time: 07:19:17
(UTC+00:00)

Okean 1 - Pass Details

Date: 17 May 2021
Orbit: 537 x 554 km, 82.5° (Epoch: 20 June)

Event Time Altitude Azimuth Distance (km) Brightness Sun altitude
Exits shadow 21:55:08 28° 226° (SW) 1,036 4.5 -19.9°
Maximum altitude 21:56:51 47° 283° (WNW) 730 4.1 -20.0°
Drops below altitude 10° 22:00:43 10° 359° (N) 1,819 7.0 -20.3°
Sets 22:02:57 0° 5° (N) 2,713 8.0 -20.4°
